C2015 -KOPF

Flight info

Callsign C2015
Flight time N/A
Altitude
Route
Aircraft C130/M-VGD/C

Departure

Time N/A
Airport -

Arrival

Time 2026-04-26 18:59
Airport Miami-Opa Locka Executive Airport (KOPF)
Time Latitude Longitude Altitude Speed Heading
2026-04-26 18:59 25.90648 -80.27535 13 ft 0 kts 119°
2026-04-26 19:00 25.90649 -80.27532 14 ft 1 kts 79°
2026-04-26 19:01 25.90657 -80.27541 14 ft 10 kts 300°
2026-04-26 19:01 25.90677 -80.27593 10 ft 10 kts 295°
2026-04-26 19:01 25.90703 -80.27655 14 ft 6 kts 275°
2026-04-26 19:01 25.90691 -80.27687 14 ft 5 kts 242°
2026-04-26 19:02 25.90686 -80.27698 15 ft 2 kts 239°
2026-04-26 19:02 25.90667 -80.27730 14 ft 8 kts 236°
2026-04-26 19:02 25.90627 -80.27770 14 ft 8 kts 220°
2026-04-26 19:02 25.90605 -80.27795 14 ft 0 kts 234°
2026-04-26 19:03 25.90608 -80.27837 14 ft 8 kts 294°
2026-04-26 19:03 25.90642 -80.27900 14 ft 11 kts 301°
2026-04-26 19:03 25.90679 -80.27968 14 ft 16 kts 303°
2026-04-26 19:03 25.90735 -80.28067 14 ft 16 kts 302°
2026-04-26 19:04 25.90821 -80.28220 14 ft 26 kts 300°
2026-04-26 19:04 25.90905 -80.28369 14 ft 20 kts 301°
2026-04-26 19:04 25.90987 -80.28515 14 ft 25 kts 302°
2026-04-26 19:04 25.91055 -80.28636 14 ft 19 kts 302°
2026-04-26 19:05 25.91131 -80.28797 15 ft 9 kts 285°
2026-04-26 19:05 25.91157 -80.28835 15 ft 1 kts 336°
2026-04-26 19:05 25.91161 -80.28836 15 ft 0 kts 342°
2026-04-26 19:06 25.91213 -80.28842 15 ft 16 kts
2026-04-26 19:06 25.91269 -80.28772 16 ft 16 kts 83°
2026-04-26 19:06 25.91283 -80.28406 13 ft 86 kts 88°
2026-04-26 19:06 25.91345 -80.27479 66 ft 147 kts 89°
2026-04-26 19:07 25.91418 -80.26243 375 ft 170 kts 91°
2026-04-26 19:07 25.91486 -80.24856 724 ft 185 kts 89°
2026-04-26 19:07 25.91547 -80.23406 1140 ft 190 kts 91°
2026-04-26 19:07 25.91618 -80.21910 1439 ft 190 kts 92°
2026-04-26 19:08 25.91714 -80.20456 1696 ft 193 kts 89°
2026-04-26 19:08 25.91811 -80.18980 1986 ft 192 kts 88°
2026-04-26 19:08 25.91891 -80.17490 2161 ft 194 kts 90°
2026-04-26 19:08 25.91964 -80.15999 2183 ft 196 kts 89°
2026-04-26 19:09 25.92036 -80.14475 2198 ft 195 kts 89°
2026-04-26 19:09 25.92107 -80.12978 2167 ft 193 kts 90°
2026-04-26 19:09 25.92167 -80.11508 2173 ft 194 kts 89°
2026-04-26 19:09 25.92228 -80.09967 2188 ft 217 kts 90°
2026-04-26 19:10 25.92289 -80.08187 2195 ft 241 kts 90°
2026-04-26 19:10 25.92354 -80.06293 2194 ft 246 kts 90°
2026-04-26 19:10 25.92413 -80.04400 2172 ft 244 kts 90°
2026-04-26 19:10 25.92466 -80.02521 2168 ft 244 kts 89°
2026-04-26 19:11 25.92533 -80.00634 2191 ft 246 kts 86°
2026-04-26 19:11 25.92879 -79.98760 2190 ft 249 kts 78°
2026-04-26 19:11 25.93379 -79.96930 2175 ft 248 kts 71°
2026-04-26 19:11 25.94190 -79.95244 2182 ft 248 kts 56°
2026-04-26 19:12 25.95209 -79.93715 2198 ft 249 kts 54°
2026-04-26 19:12 25.96370 -79.92286 2174 ft 249 kts 35°
2026-04-26 19:12 25.97978 -79.91583 2180 ft 252 kts
2026-04-26 19:12 25.99728 -79.91540 2183 ft 251 kts 357°
2026-04-26 19:13 26.01501 -79.91567 2169 ft 253 kts
2026-04-26 19:13 26.03264 -79.91487 2186 ft 253 kts
2026-04-26 19:13 26.05011 -79.91395 2184 ft 250 kts
2026-04-26 19:13 26.06764 -79.91313 2183 ft 254 kts
2026-04-26 19:14 26.08491 -79.91236 2184 ft 249 kts
2026-04-26 19:14 26.10235 -79.91162 2169 ft 251 kts
2026-04-26 19:14 26.11992 -79.91086 2187 ft 250 kts
2026-04-26 19:14 26.12583 -79.91058 2175 ft 251 kts
2026-04-26 19:15 26.15505 -79.90912 2200 ft 252 kts
2026-04-26 19:15 26.16663 -79.90857 2208 ft 251 kts
2026-04-26 19:15 26.18410 -79.90774 2247 ft 250 kts
2026-04-26 19:15 26.20160 -79.90693 2159 ft 254 kts
2026-04-26 19:16 26.21935 -79.90634 2449 ft 254 kts 355°
2026-04-26 19:16 26.23568 -79.91243 3134 ft 245 kts 323°
2026-04-26 19:16 26.24846 -79.92473 3771 ft 241 kts 314°
2026-04-26 19:16 26.26065 -79.93763 4319 ft 244 kts 314°
2026-04-26 19:17 26.27336 -79.95122 4478 ft 262 kts 314°
2026-04-26 19:17 26.28622 -79.96512 4485 ft 254 kts 314°
2026-04-26 19:17 26.29858 -79.97849 4482 ft 246 kts 314°
2026-04-26 19:17 26.31088 -79.99167 4492 ft 246 kts 314°
2026-04-26 19:18 26.32330 -80.00492 4497 ft 247 kts 314°
2026-04-26 19:18 26.33574 -80.01823 4493 ft 246 kts 313°
2026-04-26 19:18 26.34746 -80.03175 4477 ft 232 kts 311°
2026-04-26 19:18 26.35797 -80.04414 4480 ft 214 kts 311°
2026-04-26 19:19 26.36809 -80.05631 4489 ft 214 kts 309°
2026-04-26 19:19 26.37794 -80.06871 4491 ft 213 kts 309°
2026-04-26 19:19 26.38760 -80.08094 4496 ft 215 kts 309°
2026-04-26 19:19 26.39739 -80.09337 4492 ft 211 kts 309°
2026-04-26 19:20 26.40716 -80.10566 4495 ft 217 kts 309°
2026-04-26 19:20 26.41428 -80.11466 4511 ft 238 kts 309°
2026-04-26 19:20 26.42914 -80.13357 4492 ft 244 kts 309°
2026-04-26 19:20 26.44039 -80.14791 4508 ft 246 kts 309°
2026-04-26 19:21 26.45165 -80.16234 4489 ft 248 kts 309°
2026-04-26 19:21 26.46284 -80.17679 4493 ft 246 kts 309°
2026-04-26 19:21 26.47403 -80.19139 4477 ft 245 kts 309°
2026-04-26 19:21 26.48513 -80.20584 4483 ft 245 kts 309°
2026-04-26 19:22 26.49628 -80.22022 4492 ft 246 kts 309°
2026-04-26 19:22 26.50847 -80.23379 4486 ft 247 kts 320°
2026-04-26 19:22 26.52189 -80.24548 4474 ft 247 kts 311°
2026-04-26 19:22 26.52943 -80.26221 4480 ft 242 kts 278°
2026-04-26 19:23 26.53430 -80.28025 4484 ft 246 kts 299°
2026-04-26 19:23 26.54430 -80.29579 4487 ft 246 kts 306°
2026-04-26 19:23 26.55500 -80.31061 4487 ft 247 kts 307°
2026-04-26 19:23 26.56571 -80.32547 4477 ft 244 kts 307°
2026-04-26 19:24 26.57640 -80.34030 4479 ft 245 kts 307°
2026-04-26 19:24 26.58712 -80.35512 4487 ft 247 kts 307°
2026-04-26 19:24 26.60845 -80.38493 4485 ft 246 kts 307°
2026-04-26 19:25 26.61923 -80.39999 4477 ft 247 kts 307°
2026-04-26 19:25 26.62635 -80.40994 4474 ft 246 kts 308°
2026-04-26 19:25 26.64236 -80.42783 4482 ft 247 kts 317°
2026-04-26 19:25 26.65542 -80.44014 4479 ft 246 kts 318°
2026-04-26 19:26 26.66887 -80.45227 4483 ft 249 kts 320°
2026-04-26 19:26 26.68225 -80.46444 4488 ft 248 kts 319°
2026-04-26 19:26 26.69567 -80.47661 4475 ft 248 kts 319°
2026-04-26 19:26 26.70906 -80.48867 4469 ft 247 kts 319°
2026-04-26 19:27 26.72238 -80.50088 4476 ft 247 kts 317°
2026-04-26 19:27 26.73571 -80.51297 4477 ft 248 kts 319°
2026-04-26 19:27 26.74902 -80.52497 4475 ft 237 kts 319°
2026-04-26 19:27 26.76187 -80.53653 3788 ft 238 kts 318°
2026-04-26 19:28 26.77469 -80.54810 3222 ft 235 kts 319°
2026-04-26 19:28 26.78748 -80.55968 2551 ft 236 kts 319°
2026-04-26 19:28 26.80002 -80.57101 2219 ft 223 kts 319°
2026-04-26 19:28 26.81146 -80.58130 2149 ft 199 kts 318°
2026-04-26 19:29 26.82149 -80.59032 2142 ft 176 kts 319°
2026-04-26 19:29 26.83045 -80.59839 2142 ft 154 kts 319°
2026-04-26 19:29 26.83820 -80.60535 2108 ft 133 kts 317°
2026-04-26 19:29 26.84619 -80.61278 1316 ft 169 kts 315°
2026-04-26 19:30 26.85513 -80.62217 1380 ft 172 kts 309°
2026-04-26 19:30 26.86216 -80.63213 2244 ft 175 kts 313°
2026-04-26 19:30 26.87227 -80.64161 2284 ft 205 kts 322°
2026-04-26 19:30 26.88006 -80.64770 2190 ft 205 kts 323°
2026-04-26 19:31 26.89579 -80.65999 2168 ft 206 kts 321°
2026-04-26 19:31 26.90732 -80.66947 2168 ft 203 kts 320°
2026-04-26 19:31 26.91860 -80.67907 2181 ft 209 kts 320°
2026-04-26 19:31 26.92995 -80.68894 2161 ft 204 kts 319°
2026-04-26 19:32 26.94128 -80.69895 2162 ft 210 kts 319°
2026-04-26 19:32 26.95254 -80.70900 2180 ft 205 kts 318°
2026-04-26 19:32 26.96377 -80.71912 2168 ft 209 kts 318°
2026-04-26 19:32 26.97503 -80.72929 2177 ft 207 kts 317°
2026-04-26 19:33 26.98631 -80.73953 2170 ft 209 kts 318°
2026-04-26 19:33 26.99750 -80.74967 2180 ft 205 kts 319°
2026-04-26 19:33 27.00866 -80.75978 2158 ft 206 kts 319°
2026-04-26 19:33 27.01952 -80.76963 2156 ft 204 kts 318°
2026-04-26 19:34 27.03060 -80.77974 2177 ft 205 kts 318°
2026-04-26 19:34 27.04168 -80.78984 2168 ft 205 kts 317°
2026-04-26 19:34 27.05274 -80.79993 2164 ft 205 kts 318°
2026-04-26 19:34 27.06390 -80.81014 2158 ft 206 kts 318°
2026-04-26 19:35 27.07500 -80.82027 2163 ft 207 kts 317°
2026-04-26 19:35 27.08606 -80.83039 2168 ft 204 kts 318°
2026-04-26 19:35 27.09708 -80.84045 2148 ft 203 kts 318°
2026-04-26 19:35 27.10792 -80.85036 2168 ft 205 kts 318°
2026-04-26 19:36 27.11909 -80.86059 2145 ft 206 kts 318°
2026-04-26 19:36 27.12642 -80.86732 2172 ft 205 kts 319°
2026-04-26 19:36 27.14116 -80.88079 2142 ft 197 kts 318°
2026-04-26 19:36 27.15117 -80.88988 2141 ft 171 kts 317°
2026-04-26 19:37 27.15997 -80.89784 2150 ft 156 kts 317°
2026-04-26 19:37 27.16856 -80.90568 2164 ft 161 kts 319°
2026-04-26 19:37 27.17711 -80.91349 2157 ft 157 kts 318°
2026-04-26 19:37 27.18541 -80.92109 2178 ft 154 kts 319°
2026-04-26 19:38 27.19374 -80.92873 2168 ft 151 kts 318°
2026-04-26 19:38 27.20189 -80.93621 2131 ft 158 kts 319°
2026-04-26 19:38 27.21029 -80.94394 2141 ft 153 kts 317°
2026-04-26 19:38 27.21867 -80.95166 2166 ft 154 kts 317°
2026-04-26 19:39 27.22679 -80.95911 2166 ft 156 kts 317°
2026-04-26 19:39 27.23500 -80.96663 2138 ft 152 kts 317°
2026-04-26 19:39 27.24331 -80.97426 2150 ft 157 kts 318°
2026-04-26 19:39 27.25170 -80.98197 2181 ft 156 kts 317°
2026-04-26 19:40 27.26002 -80.98960 2144 ft 147 kts 318°
2026-04-26 19:40 27.26806 -80.99695 2148 ft 153 kts 317°
2026-04-26 19:40 27.27664 -81.00488 2185 ft 172 kts 319°
2026-04-26 19:40 27.28697 -81.01449 2149 ft 203 kts 317°
2026-04-26 19:41 27.29764 -81.02431 2145 ft 202 kts 319°
2026-04-26 19:41 27.30854 -81.03428 2154 ft 205 kts 318°
2026-04-26 19:41 27.31972 -81.04455 2147 ft 205 kts 317°
2026-04-26 19:41 27.32697 -81.05119 2164 ft 203 kts 317°
2026-04-26 19:42 27.34159 -81.06462 2170 ft 206 kts 319°
2026-04-26 19:42 27.35263 -81.07474 2161 ft 204 kts 318°
2026-04-26 19:42 27.36366 -81.08489 2167 ft 208 kts 318°
2026-04-26 19:42 27.37467 -81.09497 2160 ft 202 kts 317°
2026-04-26 19:43 27.38573 -81.10513 2140 ft 202 kts 318°
2026-04-26 19:43 27.39672 -81.11523 2168 ft 205 kts 319°
2026-04-26 19:43 27.40778 -81.12540 2178 ft 205 kts 318°
2026-04-26 19:43 27.41874 -81.13549 2153 ft 202 kts 319°
2026-04-26 19:44 27.42986 -81.14573 2159 ft 205 kts 317°
2026-04-26 19:44 27.44056 -81.15557 2159 ft 205 kts 318°
2026-04-26 19:44 27.45166 -81.16581 2194 ft 203 kts 317°
2026-04-26 19:44 27.46260 -81.17587 2153 ft 202 kts 317°
2026-04-26 19:45 27.47363 -81.18604 2165 ft 206 kts 317°
2026-04-26 19:45 27.48474 -81.19627 2161 ft 208 kts 318°
2026-04-26 19:45 27.49573 -81.20639 2166 ft 201 kts 317°
2026-04-26 19:45 27.50660 -81.21642 2201 ft 203 kts 317°
2026-04-26 19:46 27.51745 -81.22643 2173 ft 204 kts 316°
2026-04-26 19:46 27.52852 -81.23664 2145 ft 208 kts 318°
2026-04-26 19:46 27.53957 -81.24681 2168 ft 204 kts 318°
2026-04-26 19:46 27.55069 -81.25707 2178 ft 207 kts 319°
2026-04-26 19:47 27.56176 -81.26727 2136 ft 203 kts 318°
2026-04-26 19:47 27.56896 -81.27392 2145 ft 203 kts 318°
2026-04-26 19:47 27.58354 -81.28740 2181 ft 203 kts 319°
2026-04-26 19:47 27.59443 -81.29744 2125 ft 199 kts 319°
2026-04-26 19:48 27.60530 -81.30749 2176 ft 204 kts 318°
2026-04-26 19:48 27.61635 -81.31770 2160 ft 204 kts 318°
2026-04-26 19:48 27.62713 -81.32765 2152 ft 204 kts 318°
2026-04-26 19:48 27.63801 -81.33773 2154 ft 200 kts 317°
2026-04-26 19:49 27.64880 -81.34770 2171 ft 202 kts 319°
2026-04-26 19:49 27.66079 -81.35619 2148 ft 205 kts 344°
2026-04-26 19:49 27.67502 -81.35455 2153 ft 217 kts 24°
2026-04-26 19:49 27.68517 -81.34253 2154 ft 225 kts 66°
2026-04-26 19:50 27.68630 -81.32547 2147 ft 222 kts 108°
2026-04-26 19:50 27.67744 -81.31186 2157 ft 213 kts 153°
2026-04-26 19:50 27.66348 -81.30832 2149 ft 207 kts 193°
2026-04-26 19:50 27.65121 -81.31614 2155 ft 203 kts 236°
2026-04-26 19:51 27.64722 -81.33068 2162 ft 202 kts 276°
2026-04-26 19:51 27.65336 -81.34447 2161 ft 204 kts 317°
2026-04-26 19:51 27.66668 -81.34998 2150 ft 213 kts 359°
2026-04-26 19:51 27.68039 -81.34390 2184 ft 220 kts 41°
2026-04-26 19:52 27.68762 -81.32893 2141 ft 226 kts 83°
2026-04-26 19:52 27.68462 -81.31224 2152 ft 220 kts 123°
2026-04-26 19:52 27.67305 -81.30190 2144 ft 212 kts 166°
2026-04-26 19:52 27.65899 -81.30284 2154 ft 206 kts 210°
2026-04-26 19:53 27.64941 -81.31410 2162 ft 203 kts 246°
2026-04-26 19:53 27.64050 -81.32601 2149 ft 206 kts 211°
2026-04-26 19:53 27.62641 -81.32863 2163 ft 212 kts 174°
2026-04-26 19:53 27.61193 -81.32425 2167 ft 215 kts 165°
2026-04-26 19:54 27.59772 -81.31848 2157 ft 215 kts 163°
2026-04-26 19:54 27.58373 -81.31269 2166 ft 214 kts 166°
2026-04-26 19:54 27.56951 -81.31270 2165 ft 204 kts 207°
2026-04-26 19:54 27.55983 -81.32269 2132 ft 179 kts 248°
2026-04-26 19:55 27.56018 -81.33534 2131 ft 157 kts 300°
2026-04-26 19:55 27.56815 -81.34321 2164 ft 154 kts 327°
2026-04-26 19:55 27.57791 -81.34800 2146 ft 153 kts 337°
2026-04-26 19:55 27.58860 -81.35029 2151 ft 161 kts 352°
2026-04-26 19:56 27.59978 -81.35029 2141 ft 162 kts 357°
2026-04-26 19:56 27.61088 -81.34965 2164 ft 161 kts 358°
2026-04-26 19:56 27.62188 -81.34878 2139 ft 156 kts 359°
2026-04-26 19:56 27.63285 -81.34788 2147 ft 155 kts
2026-04-26 19:57 27.64379 -81.34708 2153 ft 158 kts 360°
2026-04-26 19:57 27.65465 -81.34629 2160 ft 157 kts 358°
2026-04-26 19:57 27.66558 -81.34546 2135 ft 160 kts 358°
2026-04-26 19:57 27.67651 -81.34472 2160 ft 160 kts
2026-04-26 19:58 27.68759 -81.34411 2144 ft 160 kts 359°
2026-04-26 19:58 27.69858 -81.34342 2141 ft 158 kts
2026-04-26 19:58 27.70962 -81.34270 2160 ft 161 kts
2026-04-26 19:58 27.72070 -81.34200 2165 ft 160 kts 358°
2026-04-26 19:59 27.73176 -81.34120 2152 ft 159 kts 358°
2026-04-26 19:59 27.74277 -81.34026 2145 ft 157 kts
2026-04-26 19:59 27.75371 -81.33990 2144 ft 152 kts 344°
2026-04-26 19:59 27.76203 -81.34655 2145 ft 147 kts 301°
2026-04-26 20:00 27.76630 -81.35678 2170 ft 146 kts 288°
2026-04-26 20:00 27.76842 -81.36772 2131 ft 142 kts 264°
2026-04-26 20:00 27.76423 -81.37801 2161 ft 149 kts 235°
2026-04-26 20:00 27.75734 -81.38686 2159 ft 152 kts 228°
2026-04-26 20:01 27.75002 -81.39523 2145 ft 148 kts 229°
2026-04-26 20:01 27.74263 -81.40342 2160 ft 153 kts 225°
2026-04-26 20:01 27.73322 -81.40795 2155 ft 157 kts 180°
2026-04-26 20:01 27.72307 -81.40348 2179 ft 163 kts 148°
2026-04-26 20:02 27.71686 -81.39855 2165 ft 164 kts 146°
2026-04-26 20:02 27.70758 -81.39139 2143 ft 164 kts 148°
2026-04-26 20:02 27.69820 -81.38434 2149 ft 162 kts 148°
2026-04-26 20:02 27.69195 -81.37972 2142 ft 163 kts 149°
2026-04-26 20:03 27.67900 -81.37020 2163 ft 169 kts 152°
2026-04-26 20:03 27.66931 -81.36310 2152 ft 163 kts 150°
2026-04-26 20:03 27.65960 -81.35605 2169 ft 171 kts 151°
2026-04-26 20:03 27.64984 -81.34898 2150 ft 164 kts 150°
2026-04-26 20:04 27.63924 -81.34554 2151 ft 157 kts 196°
2026-04-26 20:04 27.63144 -81.35246 2159 ft 146 kts 252°
2026-04-26 20:04 27.63296 -81.36302 2157 ft 144 kts 307°
2026-04-26 20:04 27.64249 -81.36693 2128 ft 156 kts
2026-04-26 20:05 27.65131 -81.35962 2144 ft 168 kts 61°
2026-04-26 20:05 27.65166 -81.34720 2157 ft 163 kts 118°
2026-04-26 20:05 27.64300 -81.33951 2163 ft 160 kts 175°
2026-04-26 20:05 27.63305 -81.34284 2153 ft 151 kts 230°
2026-04-26 20:06 27.63029 -81.35376 2150 ft 152 kts 283°
2026-04-26 20:06 27.63712 -81.36227 2155 ft 158 kts 340°
2026-04-26 20:06 27.64759 -81.36042 2135 ft 165 kts 33°
2026-04-26 20:06 27.65292 -81.34910 2131 ft 166 kts 85°
2026-04-26 20:07 27.65313 -81.33606 2140 ft 170 kts 111°
2026-04-26 20:07 27.64556 -81.32689 2128 ft 160 kts 164°
2026-04-26 20:07 27.63466 -81.32521 2130 ft 157 kts 189°
2026-04-26 20:07 27.62544 -81.33047 2139 ft 150 kts 239°
2026-04-26 20:08 27.62440 -81.34164 2146 ft 152 kts 292°
2026-04-26 20:08 27.63200 -81.34916 2144 ft 155 kts 340°
2026-04-26 20:08 27.64269 -81.35061 2136 ft 156 kts 351°
2026-04-26 20:08 27.65362 -81.35139 2126 ft 158 kts 358°
2026-04-26 20:09 27.66361 -81.34611 2131 ft 170 kts 48°
2026-04-26 20:09 27.66618 -81.33374 2157 ft 171 kts 107°
2026-04-26 20:09 27.65913 -81.32372 2143 ft 162 kts 162°
2026-04-26 20:09 27.64881 -81.32415 2122 ft 150 kts 217°
2026-04-26 20:10 27.64396 -81.33396 2128 ft 153 kts 271°
2026-04-26 20:10 27.64891 -81.34404 2143 ft 154 kts 327°
2026-04-26 20:10 27.65940 -81.34485 2152 ft 164 kts 22°
2026-04-26 20:10 27.66656 -81.33515 2150 ft 171 kts 77°
2026-04-26 20:11 27.66426 -81.32254 2137 ft 164 kts 131°
2026-04-26 20:11 27.65452 -81.31741 2142 ft 155 kts 189°
2026-04-26 20:11 27.64605 -81.32328 2123 ft 150 kts 245°
2026-04-26 20:12 27.65503 -81.34035 2151 ft 159 kts 355°
2026-04-26 20:12 27.66506 -81.33523 2136 ft 167 kts 52°
2026-04-26 20:12 27.66761 -81.32262 2146 ft 170 kts 105°
2026-04-26 20:12 27.66061 -81.31294 2133 ft 163 kts 162°
2026-04-26 20:13 27.65007 -81.31367 2146 ft 152 kts 216°
2026-04-26 20:13 27.64538 -81.32345 2130 ft 149 kts 273°
2026-04-26 20:13 27.65063 -81.33295 2139 ft 155 kts 329°
2026-04-26 20:13 27.66129 -81.33311 2137 ft 165 kts 25°
2026-04-26 20:14 27.66810 -81.32293 2144 ft 174 kts 79°
2026-04-26 20:14 27.66529 -81.31056 2146 ft 164 kts 134°
2026-04-26 20:14 27.65548 -81.30601 2136 ft 157 kts 193°
2026-04-26 20:14 27.64697 -81.31239 2127 ft 145 kts 248°
2026-04-26 20:15 27.64773 -81.32295 2131 ft 147 kts 303°
2026-04-26 20:15 27.65693 -81.32789 2141 ft 160 kts
2026-04-26 20:15 27.66653 -81.32177 2141 ft 166 kts 56°
2026-04-26 20:15 27.66808 -81.30920 2142 ft 169 kts 111°
2026-04-26 20:16 27.66037 -81.30049 2136 ft 159 kts 167°
2026-04-26 20:16 27.65018 -81.30259 2147 ft 151 kts 225°
2026-04-26 20:16 27.64665 -81.31299 2124 ft 150 kts 279°
2026-04-26 20:16 27.65290 -81.32179 2117 ft 152 kts 335°
2026-04-26 20:17 27.66360 -81.32053 2150 ft 164 kts 30°
2026-04-26 20:17 27.66942 -81.30990 2142 ft 165 kts 87°
2026-04-26 20:17 27.66537 -81.29817 2136 ft 164 kts 143°
2026-04-26 20:17 27.65864 -81.29479 2131 ft 157 kts 181°
2026-04-26 20:18 27.64777 -81.30270 2155 ft 150 kts 254°
2026-04-26 20:18 27.64972 -81.31383 2123 ft 153 kts 309°
2026-04-26 20:18 27.65939 -81.31797 2143 ft 160 kts
2026-04-26 20:18 27.66841 -81.31100 2134 ft 167 kts 62°
2026-04-26 20:19 27.66890 -81.29816 2127 ft 172 kts 117°
2026-04-26 20:19 27.66049 -81.29005 2148 ft 159 kts 173°
2026-04-26 20:19 27.65056 -81.29294 2135 ft 150 kts 229°
2026-04-26 20:19 27.64781 -81.30367 2144 ft 149 kts 283°
2026-04-26 20:20 27.65463 -81.31190 2136 ft 154 kts 339°
2026-04-26 20:20 27.66514 -81.30983 2116 ft 162 kts 38°
2026-04-26 20:20 27.67001 -81.29837 2127 ft 172 kts 91°
2026-04-26 20:20 27.66519 -81.28706 2127 ft 165 kts 146°
2026-04-26 20:21 27.65474 -81.28476 2149 ft 155 kts 200°
2026-04-26 20:21 27.64762 -81.29286 2133 ft 143 kts 259°
2026-04-26 20:21 27.65034 -81.30371 2133 ft 150 kts 315°
2026-04-26 20:21 27.66031 -81.30700 2121 ft 158 kts
2026-04-26 20:22 27.66883 -81.29924 2134 ft 170 kts 64°
2026-04-26 20:22 27.66879 -81.28608 2126 ft 169 kts 121°